Location: Palomar Mountain Lodge
(33.3110°N, 116.8495°W)
Time: 01:32:05
(UTC-08:00)

Meteor 1-11 Rocket - Pass Details

Date: 19 May 2017
Orbit: 832 x 915 km, 81.2° (Epoch: 23 November)

Event Time Altitude Azimuth Distance (km) Brightness Sun altitude
Rises 20:04:11 0° 350° (N) 3,441 7.5 -4.7°
Reaches altitude 10° 20:06:36 10° 349° (NNW) 2,512 6.8 -5.1°
Maximum altitude 20:12:18 77° 264° (W) 906 4.0 -6.2°
Drops below altitude 10° 20:18:07 10° 179° (S) 2,554 5.9 -7.2°
Sets 20:20:35 0° 178° (S) 3,501 6.6 -7.7°
